BEIDOU-3 M24

Last updated on Sun Oct 26 2025 00:02:42 GMT+0000 (Coordinated Universal Time)

1 44542U 19061A 25298.05619706 .00000027 00000+0 00000+0 0 9993 2 44542 54.4013 190.6596 0009221 15.2716 344.8415 1.86229469 41416
UTC large
Height (km)
Speed (km/s)
/
Latitude / Longitude
Inclination (degrees)
Orbital Period (minutes)
Azimuth
Elevation
Range (km)
Doppler Factor

Next 0 passes for location: London (51.5072 / 0.1276)

Sorry there are no passes over London.